Wakefield, VA

8:56 AM EST on November 20, 2019 (GMT -0500)
Wakefield Municipal

Weather History for KAKQ - October, 2019

Change the Weather History Date:

Monday, October 21, 2019

  Actual Average (KJGG) Record (KJGG)
Temperature  
Mean Temperature 58 °F -  
Max Temperature 60 °F 69 °F 84 °F (1984)
Min Temperature 57 °F 46 °F 23 °F (1952)
Degree Days  
Heating Degree Days 6    
Growing Degree Days 8 (Base 50)    
Moisture  
Dew Point 54 °F    
Average Humidity 87    
Maximum Humidity 94    
Minimum Humidity 80    
Precipitation  
Precipitation 0.00 in - - ()
Sea Level Pressure  
Sea Level Pressure 30.05 in    
Wind  
Wind Speed 5 mph (North)    
Max Wind Speed 9 mph    
Max Gust Speed 20 mph    
Visibility 9 miles    
Events      
Averages and records for this station are not official NWS values.
T = Trace of Precipitation, MM = Missing Value Source: NWS Daily Summary

Daily Weather History Graph

Daily Weather History Graph

Search for Another Location

Airport or City:

Astronomy

Oct. 21, 2019 Rise Set
Actual Time 7:21 AM EDT 6:23 PM EDT
Civil Twilight 6:54 AM EDT 6:50 PM EDT
Nautical Twilight 6:24 AM EDT 7:20 PM EDT
Astronomical Twilight 5:54 AM EDT 7:50 PM EDT
Moon No Moon Rise 2:32 PM EDT (10/21)
Length of Visible Light 11h 55m
Length of Day
11h 02m
Waning Gibbous, 48% of the Moon is Illuminated
Oct 21
Waning Gibbous
Oct 27
New
Nov 4
First Quarter
Nov 12
Full
Nov 19
Last Quarter

Hourly Weather History & Observations

Time (EDT) Temp. Dew Point Humidity Pressure Visibility Wind Dir Wind Speed Gust Speed Precip Events Conditions
12:24 AM 59.0 °F 55.0 °F 87% 29.92 in 10.0 mi NNW 9.2 mph 19.6 mph N/A   Overcast
12:54 AM 57.9 °F 55.0 °F 90% 29.92 in 6.0 mi Variable 6.9 mph - N/A   Overcast
1:50 AM 57.2 °F 55.4 °F 94% 29.94 in 10.0 mi NNW 8.1 mph - N/A   Overcast
1:54 AM 57.9 °F 55.0 °F 90% 29.95 in 10.0 mi NNW 6.9 mph - N/A   Overcast
2:54 AM 59.0 °F 54.0 °F 83% 29.96 in 10.0 mi Variable 4.6 mph - N/A   Overcast
3:54 AM 57.9 °F 54.0 °F 87% 29.97 in 10.0 mi Variable 5.8 mph - N/A   Overcast
4:54 AM 57.9 °F 54.0 °F 87% 29.98 in 10.0 mi NNW 5.8 mph - N/A   Overcast
5:54 AM 57.0 °F 54.0 °F 89% 30.00 in 10.0 mi North 8.1 mph - N/A   Overcast
6:54 AM 57.0 °F 54.0 °F 89% 30.03 in 10.0 mi Variable 3.5 mph - N/A   Overcast
7:12 AM 57.0 °F 53.1 °F 87% 30.02 in 10.0 mi North 4.6 mph - N/A   Overcast
7:36 AM 57.0 °F 54.0 °F 89% 30.03 in 9.0 mi NNW 4.6 mph - N/A   Overcast
7:54 AM 57.0 °F 53.1 °F 87% 30.04 in 9.0 mi North 3.5 mph - N/A   Overcast
8:54 AM 57.0 °F 54.0 °F 89% 30.08 in 9.0 mi NNW 4.6 mph - N/A   Overcast
9:54 AM 57.9 °F 54.0 °F 87% 30.09 in 10.0 mi NNW 3.5 mph - N/A   Overcast
10:54 AM 57.0 °F 54.0 °F 89% 30.09 in 4.0 mi Variable 4.6 mph - N/A   Overcast
11:54 AM 57.9 °F 54.0 °F 87% 30.10 in 4.0 mi Variable 3.5 mph - N/A   Overcast
12:52 PM 59.0 °F 53.6 °F 82% 30.11 in 9.0 mi WNW 5.8 mph - N/A   Overcast
12:54 PM 57.9 °F 54.0 °F 87% 30.11 in 10.0 mi WNW 5.8 mph - N/A   Overcast
1:42 PM 60.1 °F 54.0 °F 80% 30.08 in 10.0 mi Calm Calm - N/A   Overcast
1:54 PM 59.0 °F 54.0 °F 83% 30.09 in 10.0 mi Variable 5.8 mph - N/A   Overcast
2:54 PM 60.1 °F 54.0 °F 80% 30.07 in 10.0 mi Calm Calm - N/A   Overcast
3:54 PM 60.1 °F 54.0 °F 80% 30.08 in 10.0 mi Calm Calm - N/A   Overcast
4:54 PM 60.1 °F 54.0 °F 80% 30.07 in 10.0 mi Calm Calm - N/A   Overcast
5:54 PM 60.1 °F 55.0 °F 83% 30.08 in 10.0 mi Calm Calm - N/A   Overcast
6:54 PM 59.0 °F 55.0 °F 87% 30.09 in 10.0 mi Calm Calm - N/A   Overcast
7:54 PM 59.0 °F 55.0 °F 87% 30.10 in 10.0 mi Calm Calm - N/A   Overcast
8:54 PM 57.9 °F 55.0 °F 90% 30.11 in 10.0 mi Calm Calm - N/A   Overcast
9:11 PM 57.9 °F 55.0 °F 90% 30.09 in 10.0 mi East 3.5 mph - N/A   Overcast
9:54 PM 57.9 °F 55.0 °F 90% 30.11 in 10.0 mi Calm Calm - N/A   Overcast
10:29 PM 57.9 °F 55.0 °F 90% 30.11 in 10.0 mi ESE 3.5 mph - N/A   Overcast
10:39 PM 57.9 °F 55.0 °F 90% 30.10 in 10.0 mi ESE 3.5 mph - N/A   Overcast
10:54 PM 57.9 °F 55.0 °F 90% 30.11 in 8.0 mi Calm Calm - N/A   Overcast
11:21 PM 57.9 °F 55.0 °F 90% 30.10 in 8.0 mi Calm Calm - N/A   Overcast
11:54 PM 57.9 °F 55.0 °F 90% 30.09 in 6.0 mi Calm Calm - N/A   Overcast